{"data":{"norad_id":67640,"intl_designator":"2026-020Z","name":"STARLINK-36570","alt_names":[],"object_type":"PAYLOAD","status":"ACTIVE","operator":null,"country":"US","launch_date":"2026-01-30","launch_site_code":"AFETR","launch_vehicle":null,"mission":null,"orbit_class":"UNKNOWN","rcs_meters":null,"size_class":null,"mass_kg":null,"dimensions":null,"purposes":["comms"],"wikipedia_slug":null,"has_3d_model":false,"image_url":null,"decayed_at":null,"tle_current":{"epoch":"2026-09-19T08:22:17.978880Z","epoch_age_seconds":168336,"freshness":"FRESH","line1":"1 67640U 26020Z   26262.34881920  .00011146  00000+0  41383-3 0  9990","line2":"2 67640  43.0031 125.8851 0001619 270.0116  90.0550 15.27587891 35730","mean_motion":15.27587891,"eccentricity":0.0001619,"inclination_deg":43.0031,"raan_deg":125.8851,"arg_perigee_deg":270.0116,"mean_anomaly_deg":90.055,"bstar":0.00041383,"rev_number":3573,"period_min":94.266261763658,"perigee_km":481.91464544508,"apogee_km":484.13628985211,"semimajor_km":6861.1624676486,"source":"CELESTRAK","updated_at":"2026-09-20T09:00:43.616150Z"}}}